Vertical_Velocity
-6 -1 1 -2 2 2 -6 3 -1 2 -2 -0 1 -1 -3 -0 -1 1 -2 2 1 0 -0 0 1 -2 -1 1 -3 -1 -4 -1 -0 -8 -4 -1 -2 -3 -2 0 -4 -1 0 -12
0 -2 -0 3 3 1 5 2 -0 3 -1 -0 -1 -4 -2 2 1 -1 0 -0 -0 -0 0 -1 1 -0 -1 0 -1 -2 -2 -4 -3 -16 -7 -1 -0 -1 -1 -0 -0 -3 2 -10
-4 3 -1 1 2 8 1 -3 0 2 3 3 1 0 -3 -2 3 -1 1 -1 2 1 1 -0 -4 -1 -0 1 -0 1 -1 -0 -4 -5 -9 -0 1 -0 -0 -1 1 -2 -4 -4
-5 -4 4 2 4 1 15 -2 -4 3 -0 -2 0 1 1 -0 -2 1 1 -2 0 -2 1 -0 -0 -0 -2 1 1 1 -4 1 2 -3 -2 3 0 1 -1 2 -5 0 -6 0
-1 -9 -0 3 -1 1 1 1 -3 -2 1 2 2 1 -3 0 -4 3 -3 2 -2 1 0 -4 -2 2 0 -3 1 -0 0 -5 1 -4 -1 1 0 -1 0 -0 -0 1 1 -6
-2 -1 -5 4 5 2 -1 -0 6 5 -4 -1 3 -4 -4 -4 3 -8 2 -0 1 1 -7 3 -2 1 -0 -2 -4 -1 -1 -1 -2 -5 0 -1 -2 -2 -0 -1 -0 -4 -1 -9
0 -1 1 -2 5 4 1 3 6 2 -3 4 -2 1 5 -0 -3 4 -6 8 2 -8 -1 -3 -2 6 3 4 -1 -1 -1 -0 0 -2 -3 -6 -12 -0 -0 0 -1 0 0 1
-0 0 4 0 -2 4 -2 1 5 3 -1 2 -1 3 1 -0 -6 4 10 -13 -1 -1 -0 -3 -4 -5 -3 -2 -1 1 -2 -1 -2 -1 -0 -10 -0 -1 -1 -1 -2 0 -2 1
2 -0 2 -1 -1 -0 8 -1 11 9 9 -16 -8 3 3 0 -2 -1 -11 -0 3 5 -2 0 0 -2 -3 -1 1 -1 0 -1 -2 -1 1 -1 -3 -0 0 -1 -5 0 -3 0
5 5 -1 -2 -2 5 6 -11 4 16 10 -23 -7 -5 -2 2 2 1 2 -1 -2 3 -0 1 -1 -4 -1 -3 -1 -1 0 1 -1 -0 -0 -8 -2 -0 0 -2 -10 -0 -2 -3
4 -2 -6 -6 -3 4 14 -16 3 14 2 -21 5 -3 8 -6 11 2 -3 2 2 1 0 -0 -4 1 -6 1 -4 -5 -7 -5 -1 1 2 -6 -0 1 1 -6 -0 0 1 -1
1 -2 -3 -2 -6 -10 23 -6 5 10 24 -24 18 5 6 -3 -19 8 -0 -1 3 -3 -1 -0 -0 -1 -0 -2 -3 1 -4 -9 -6 -7 -11 -1 -1 -1 -1 -0 -1 0 -1 0
-0 1 1 0 2 -0 6 7 -7 7 15 -13 36 3 -26 -3 -11 12 16 -3 1 -1 5 -2 -2 0 -2 -1 -5 1 -1 -0 -1 0 -1 -0 -0 0 0 -0 -1 -1 2 1
1 0 0 2 -0 -1 8 8 -5 18 14 11 -32 -6 -14 -42 -10 -3 15 -17 5 -3 11 1 -0 -1 1 -2 -3 -0 -6 -1 -3 -2 1 1 1 -0 -1 -0 -1 -1 0 1
-1 -1 -1 -1 -1 -2 4 3 -1 11 14 4 -5 16 -2 -2 -1 -1 1 8 7 6 3 2 -3 -0 1 -1 0 0 -2 -5 -3 -6 -2 -2 -2 2 -1 -2 -1 -0 -0 -0
0 2 1 1 2 3 14 -10 -34 -8 -3 39 9 -6 -9 -10 -3 6 -0 0 7 1 1 -4 -5 -2 -1 2 -0 -7 -1 -0 -0 -5 -0 -1 0 -3 3 2 -4 -2 -1 -0
-1 -1 -0 1 2 13 15 -33 2 16 51 25 5 1 -4 5 21 9 8 12 -2 7 -3 0 2 1 -2 1 0 -3 -1 1 -1 2 -1 0 0 -2 -1 2 4 -2 -2 -1
-1 -2 -0 -3 10 15 -4 -23 -5 13 38 10 0 2 1 7 2 3 1 4 9 7 -5 7 2 5 2 1 -5 -1 1 1 -2 2 1 -2 -1 -0 0 -1 4 1 -1 -1
-5 -5 -9 -6 11 15 -15 14 -1 4 19 -3 0 -5 -2 2 2 2 8 2 4 -2 0 -1 2 0 -3 -7 -2 -2 1 -5 -2 1 2 0 -0 -2 1 -0 -0 2 0 -0
-7 -9 4 3 16 8 1 5 -2 2 4 -1 -0 5 0 -6 1 3 0 3 -2 1 -5 -2 2 -3 -1 -2 -1 2 -1 -2 -1 1 3 2 -1 -3 2 0 -1 4 2 1
-2 -8 2 -6 18 5 -0 -0 3 1 2 1 -0 -2 -3 3 -1 -1 -4 -2 -0 2 -1 -1 0 -1 -1 0 -1 2 -2 -4 -1 1 2 0 1 -2 -1 1 0 2 2 1
1 -6 -3 -6 5 4 2 -1 -0 2 -3 4 -1 1 -2 -2 0 -0 2 -0 4 -1 -2 1 1 -1 6 2 2 7 -8 -5 2 -0 -1 -1 3 1 -2 -0 1 1 2 -0
-4 6 5 8 -3 4 2 0 1 2 1 0 2 2 -5 1 3 0 1 4 -2 -1 1 -1 1 4 3 2 4 -0 -3 -0 1 -2 -1 5 -2 1 -1 1 1 3 2 1
3 3 -2 3 -3 -1 0 1 -0 -2 -1 1 0 -0 -2 0 2 -1 1 -1 2 3 0 2 1 4 2 3 10 -4 -2 3 4 4 -1 -0 2 2 2 1 1 3 2 1
2 4 0 -0 2 -1 -1 1 3 -1 2 5 2 1 -2 1 -1 -0 0 3 1 1 3 2 2 2 1 -1 -3 -4 -2 0 8 3 -4 1 -3 1 5 1 0 3 2 -0
4 -5 -2 -3 -0 -3 -3 -1 -1 5 2 2 1 0 -1 0 -1 -2 1 -2 2 4 1 6 4 3 3 2 2 1 3 1 2 -0 -0 -1 2 3 -2 -3 1 0 1 -0
-1 -1 1 4 1 3 1 5 -1 2 5 0 -1 -4 2 -2 -3 -1 0 2 3 4 6 2 1 -1 2 3 2 3 5 5 1 -2 2 0 1 2 -1 -0 2 -2 -2 -1
Height
1532 1532 1532 1532 1533 1535 1536 1535 1536 1533 1533 1537 1533 1532 1525 1520 1519 1519 1519 1517 1516 1514 1510 1508 1505 1501 1493 1495 1496 1500 1499 1501 1501 1484 1474 1472 1473 1477 1476 1481 1478 1476 1475 1469
1533 1532 1531 1530 1531 1532 1532 1533 1533 1531 1532 1534 1532 1525 1521 1519 1517 1517 1517 1516 1513 1510 1510 1511 1502 1498 1494 1493 1496 1497 1498 1503 1510 1487 1479 1474 1475 1473 1472 1473 1476 1474 1471 1464
1530 1532 1531 1529 1528 1529 1532 1534 1532 1529 1529 1528 1529 1527 1523 1519 1512 1513 1513 1511 1509 1509 1509 1507 1502 1496 1493 1492 1492 1494 1496 1499 1497 1497 1475 1475 1474 1471 1469 1471 1478 1468 1467 1455
1525 1529 1529 1528 1526 1526 1529 1529 1527 1524 1525 1524 1524 1526 1523 1519 1517 1513 1511 1510 1509 1508 1509 1503 1501 1496 1494 1493 1493 1493 1496 1500 1493 1484 1475 1472 1469 1465 1465 1467 1462 1464 1455 1455
1520 1522 1525 1526 1525 1524 1525 1524 1525 1523 1520 1518 1519 1521 1520 1516 1514 1514 1511 1510 1505 1506 1508 1502 1498 1496 1495 1492 1494 1493 1493 1497 1489 1480 1464 1465 1465 1460 1458 1458 1457 1458 1455 1453
1516 1517 1520 1523 1523 1523 1522 1523 1520 1520 1518 1515 1515 1513 1512 1509 1509 1505 1503 1503 1504 1503 1500 1496 1493 1491 1489 1487 1488 1492 1493 1496 1495 1484 1469 1466 1458 1449 1449 1450 1447 1447 1453 1448
1511 1512 1514 1517 1519 1520 1521 1520 1520 1519 1510 1513 1512 1511 1510 1508 1507 1507 1503 1501 1499 1498 1496 1494 1489 1484 1480 1480 1480 1482 1486 1490 1495 1489 1474 1469 1450 1446 1447 1448 1445 1442 1444 1445
1508 1508 1509 1511 1514 1516 1516 1518 1519 1518 1508 1509 1507 1506 1505 1504 1503 1499 1499 1498 1497 1495 1495 1496 1492 1483 1478 1473 1475 1478 1480 1488 1495 1490 1485 1462 1446 1445 1445 1446 1446 1442 1445 1445
1503 1504 1505 1507 1509 1512 1512 1514 1515 1515 1511 1502 1507 1506 1504 1500 1498 1497 1493 1493 1491 1492 1493 1497 1496 1488 1474 1474 1478 1478 1480 1483 1491 1487 1475 1462 1444 1443 1444 1444 1450 1442 1442 1445
1498 1499 1500 1502 1503 1506 1507 1508 1510 1510 1500 1495 1503 1499 1499 1496 1495 1491 1490 1488 1488 1489 1493 1498 1497 1486 1468 1472 1476 1483 1484 1485 1486 1487 1478 1456 1442 1442 1443 1446 1449 1441 1442 1443
1493 1494 1494 1495 1496 1497 1500 1499 1501 1503 1494 1485 1491 1490 1489 1491 1493 1492 1489 1487 1485 1488 1491 1491 1484 1481 1467 1461 1459 1467 1470 1477 1475 1477 1473 1458 1439 1441 1440 1441 1440 1440 1441 1443
1488 1488 1488 1488 1488 1488 1491 1491 1493 1493 1488 1472 1473 1473 1475 1481 1487 1488 1486 1483 1483 1477 1480 1479 1476 1469 1466 1461 1457 1450 1457 1448 1450 1447 1443 1437 1438 1437 1437 1438 1437 1438 1439 1442
1481 1480 1480 1480 1481 1481 1483 1482 1485 1484 1476 1460 1453 1452 1465 1470 1474 1479 1482 1478 1478 1475 1471 1468 1467 1467 1462 1460 1456 1446 1441 1439 1443 1440 1435 1434 1436 1437 1437 1437 1437 1438 1439 1441
1472 1471 1471 1470 1471 1471 1472 1471 1473 1473 1469 1451 1428 1443 1446 1457 1462 1462 1465 1469 1470 1472 1470 1464 1463 1463 1454 1453 1448 1446 1439 1438 1437 1436 1432 1432 1433 1434 1435 1435 1436 1437 1438 1439
1464 1463 1461 1460 1459 1460 1459 1453 1450 1453 1462 1437 1427 1429 1432 1437 1442 1443 1450 1454 1458 1463 1466 1460 1458 1454 1454 1448 1447 1443 1433 1431 1434 1428 1422 1425 1427 1429 1430 1433 1434 1435 1436 1437
1453 1450 1448 1446 1446 1447 1446 1430 1416 1422 1432 1437 1427 1419 1421 1427 1431 1432 1434 1438 1446 1451 1452 1448 1447 1446 1449 1449 1441 1426 1425 1424 1424 1423 1423 1425 1428 1431 1432 1429 1430 1433 1434 1435
1441 1436 1432 1429 1428 1430 1428 1413 1404 1404 1408 1415 1414 1409 1407 1411 1419 1424 1428 1434 1435 1438 1441 1436 1439 1438 1440 1440 1432 1423 1422 1422 1424 1423 1422 1426 1428 1429 1430 1432 1428 1429 1432 1434
1427 1421 1414 1408 1405 1401 1393 1388 1391 1398 1396 1396 1392 1394 1401 1404 1407 1416 1421 1425 1428 1426 1427 1425 1428 1433 1432 1430 1417 1417 1418 1419 1422 1422 1420 1421 1424 1427 1428 1429 1430 1428 1429 1431
1414 1404 1394 1383 1379 1380 1376 1379 1377 1380 1382 1376 1377 1380 1391 1397 1401 1406 1411 1415 1416 1418 1412 1414 1418 1418 1417 1407 1408 1411 1411 1413 1417 1420 1420 1420 1422 1425 1427 1427 1428 1427 1427 1428
1404 1396 1385 1374 1372 1374 1374 1374 1371 1368 1364 1369 1370 1375 1383 1391 1394 1398 1402 1402 1403 1405 1405 1406 1404 1402 1400 1402 1402 1406 1409 1412 1417 1419 1419 1418 1419 1424 1425 1425 1427 1427 1426 1427
1398 1395 1385 1373 1370 1371 1371 1370 1366 1364 1366 1365 1367 1371 1379 1384 1387 1391 1393 1390 1390 1389 1394 1397 1394 1392 1393 1397 1400 1403 1406 1413 1416 1418 1417 1417 1419 1421 1424 1425 1426 1427 1427 1428
1397 1393 1383 1375 1369 1368 1368 1366 1364 1361 1358 1359 1362 1367 1372 1380 1382 1383 1386 1382 1381 1370 1379 1387 1383 1386 1386 1390 1396 1397 1404 1413 1415 1417 1417 1418 1418 1419 1422 1425 1426 1427 1427 1429
1388 1382 1377 1371 1367 1364 1363 1355 1355 1354 1354 1355 1356 1362 1366 1375 1376 1377 1379 1377 1368 1370 1375 1376 1383 1384 1388 1392 1396 1397 1406 1412 1414 1415 1417 1417 1418 1420 1423 1425 1427 1428 1428 1429
1385 1379 1375 1373 1371 1370 1367 1367 1363 1358 1355 1353 1354 1358 1360 1365 1371 1369 1365 1365 1365 1362 1363 1376 1384 1386 1390 1396 1395 1399 1407 1412 1415 1413 1415 1419 1421 1422 1424 1425 1428 1429 1429 1430
1384 1380 1376 1374 1373 1371 1367 1363 1359 1356 1351 1349 1349 1352 1354 1357 1361 1364 1364 1364 1360 1365 1374 1382 1388 1390 1392 1395 1399 1406 1411 1416 1415 1411 1417 1421 1423 1427 1425 1425 1430 1431 1431 1433
1384 1383 1380 1376 1372 1370 1366 1362 1356 1352 1349 1347 1348 1350 1355 1359 1360 1361 1368 1365 1373 1379 1385 1388 1389 1393 1397 1400 1404 1409 1414 1414 1415 1414 1420 1422 1427 1427 1426 1429 1433 1433 1434 1436
1386 1385 1383 1380 1377 1373 1369 1362 1356 1352 1350 1349 1349 1353 1361 1362 1372 1380 1379 1382 1386 1389 1391 1395 1399 1404 1407 1409 1411 1414 1416 1415 1416 1419 1424 1426 1428 1428 1429 1431 1432 1434 1436 1438